Time,TemperatureF,DewpointF,PressureIn,WindDirection,WindDirectionDegrees,WindSpeedMPH,WindSpeedGustMPH,Humidity,HourlyPrecipIn,Conditions,Clouds,dailyrainin,SoftwareType,DateUTC
2013-02-26 00:00:00,25.5,21.4,30.18,NW,315,0.0,0.0,84,0.00,CLR,,0.25,WeatherDisplay:10.37,2013-02-26 05:00:00,
2013-02-26 00:05:00,25.5,21.4,30.19,NW,315,0.0,0.0,84,0.00,RA,,0.00,WeatherDisplay:10.37,2013-02-26 05:05:00,
2013-02-26 00:10:00,25.5,21.4,30.19,NW,315,0.0,0.0,84,0.00,RA,,0.00,WeatherDisplay:10.37,2013-02-26 05:10:00,
2013-02-26 00:15:00,25.5,21.4,30.19,NW,315,0.0,0.0,84,0.00,CLR,,0.00,WeatherDisplay:10.37,2013-02-26 05:15:00,
2013-02-26 00:20:00,25.5,21.4,30.19,NW,315,0.0,0.0,84,0.00,CLR,,0.00,WeatherDisplay:10.37,2013-02-26 05:20:00,
2013-02-26 00:25:00,25.3,21.2,30.19,NW,315,0.0,0.0,84,0.00,CLR,,0.00,WeatherDisplay:10.37,2013-02-26 05:25:00,
2013-02-26 00:30:00,25.2,21.0,30.19,NW,315,0.0,0.0,84,0.00,CLR,,0.00,WeatherDisplay:10.37,2013-02-26 05:30:00,
2013-02-26 00:35:00,25.2,21.0,30.19,NW,315,0.0,0.0,84,0.00,CLR,,0.00,WeatherDisplay:10.37,2013-02-26 05:35:00,
2013-02-26 00:40:00,25.0,20.8,30.19,NW,315,0.0,0.0,84,0.00,CLR,,0.00,WeatherDisplay:10.37,2013-02-26 05:40:00,
2013-02-26 00:45:00,25.0,20.8,30.19,NW,315,0.0,0.0,84,0.00,CLR,,0.00,WeatherDisplay:10.37,2013-02-26 05:45:00,
2013-02-26 00:50:00,25.0,20.8,30.19,NW,315,0.0,0.0,84,0.00,CLR,,0.00,WeatherDisplay:10.37,2013-02-26 05:50:00,
2013-02-26 00:55:00,25.0,20.8,30.20,NW,315,0.0,0.0,84,0.00,CLR,,0.00,WeatherDisplay:10.37,2013-02-26 05:55:00,
2013-02-26 01:00:00,25.2,21.3,30.20,NW,315,0.0,0.0,85,0.00,CLR,,0.00,WeatherDisplay:10.37,2013-02-26 06:00:00,
2013-02-26 01:05:00,25.2,21.3,30.20,NW,315,0.0,0.0,85,0.00,CLR,,0.00,WeatherDisplay:10.37,2013-02-26 06:05:00,
2013-02-26 01:10:00,25.2,21.3,30.20,NW,315,0.0,0.0,85,0.00,CLR,,0.00,WeatherDisplay:10.37,2013-02-26 06:10:00,
2013-02-26 01:15:00,25.2,21.3,30.19,NW,315,0.0,0.0,85,0.00,CLR,,0.00,WeatherDisplay:10.37,2013-02-26 06:15:00,
2013-02-26 01:20:00,25.2,21.3,30.19,NW,315,0.0,0.0,85,0.00,CLR,,0.00,WeatherDisplay:10.37,2013-02-26 06:20:00,
2013-02-26 01:25:00,25.2,21.3,30.19,NW,315,0.0,0.0,85,0.00,CLR,,0.00,WeatherDisplay:10.37,2013-02-26 06:25:00,
2013-02-26 01:30:00,25.2,21.3,30.19,NW,315,0.0,0.0,85,0.00,CLR,,0.00,WeatherDisplay:10.37,2013-02-26 06:30:00,
2013-02-26 01:35:00,25.0,21.1,30.19,NW,315,0.0,0.0,85,0.00,CLR,,0.00,WeatherDisplay:10.37,2013-02-26 06:35:00,
2013-02-26 01:40:00,24.8,20.9,30.19,NW,315,0.0,0.0,85,0.00,CLR,,0.00,WeatherDisplay:10.37,2013-02-26 06:40:00,
2013-02-26 01:45:00,24.8,20.9,30.19,NW,315,0.0,0.0,85,0.00,CLR,,0.00,WeatherDisplay:10.37,2013-02-26 06:45:00,
2013-02-26 01:50:00,24.8,20.9,30.18,NW,315,0.0,0.0,85,0.00,CLR,,0.00,WeatherDisplay:10.37,2013-02-26 06:50:00,
2013-02-26 01:55:00,24.6,20.8,30.18,NW,315,0.0,0.0,85,0.00,CLR,,0.00,WeatherDisplay:10.37,2013-02-26 06:55:00,
2013-02-26 02:00:00,24.4,20.6,30.18,NW,315,0.0,0.0,85,0.00,CLR,,0.00,WeatherDisplay:10.37,2013-02-26 07:00:00,
2013-02-26 02:05:00,24.4,20.6,30.18,NW,315,0.0,0.0,85,0.00,CLR,,0.00,WeatherDisplay:10.37,2013-02-26 07:05:00,
2013-02-26 02:10:00,24.3,20.4,30.18,NW,315,0.0,0.0,85,0.00,CLR,,0.00,WeatherDisplay:10.37,2013-02-26 07:10:00,
2013-02-26 02:15:00,24.3,20.4,30.18,NW,315,0.0,0.0,85,0.00,CLR,,0.00,WeatherDisplay:10.37,2013-02-26 07:15:00,
2013-02-26 02:20:00,24.1,20.2,30.18,NW,315,0.0,0.0,85,0.00,CLR,,0.00,WeatherDisplay:10.37,2013-02-26 07:20:00,
2013-02-26 02:25:00,24.1,20.2,30.18,NW,315,0.0,0.0,85,0.00,CLR,,0.00,WeatherDisplay:10.37,2013-02-26 07:25:00,
2013-02-26 02:30:00,24.1,20.2,30.18,NW,315,0.0,0.0,85,0.00,CLR,,0.00,WeatherDisplay:10.37,2013-02-26 07:30:00,
2013-02-26 02:35:00,24.1,20.2,30.18,NW,315,0.0,0.0,85,0.00,CLR,,0.00,WeatherDisplay:10.37,2013-02-26 07:35:00,
2013-02-26 02:40:00,24.1,20.2,30.17,NW,315,0.0,0.0,85,0.00,CLR,,0.00,WeatherDisplay:10.37,2013-02-26 07:40:00,
2013-02-26 02:45:00,24.1,20.2,30.18,NW,315,0.0,0.0,85,0.00,CLR,,0.00,WeatherDisplay:10.37,2013-02-26 07:45:00,
2013-02-26 02:50:00,24.1,20.2,30.18,NW,315,0.0,0.0,85,0.00,CLR,,0.00,WeatherDisplay:10.37,2013-02-26 07:50:00,
2013-02-26 02:55:00,24.1,20.2,30.18,NW,315,0.0,0.0,85,0.00,CLR,,0.00,WeatherDisplay:10.37,2013-02-26 07:55:00,
2013-02-26 03:00:00,24.1,20.2,30.18,NW,315,0.0,0.0,85,0.00,CLR,,0.00,WeatherDisplay:10.37,2013-02-26 08:00:00,
2013-02-26 03:05:00,23.9,20.0,30.18,NW,315,0.0,0.0,85,0.00,CLR,,0.00,WeatherDisplay:10.37,2013-02-26 08:05:00,
2013-02-26 03:10:00,23.9,20.0,30.19,NW,315,0.0,0.0,85,0.00,CLR,,0.00,WeatherDisplay:10.37,2013-02-26 08:10:00,
2013-02-26 03:15:00,23.7,19.9,30.20,NW,315,0.0,0.0,85,0.00,CLR,,0.00,WeatherDisplay:10.37,2013-02-26 08:15:00,
2013-02-26 03:20:00,23.7,19.9,30.20,NW,315,0.0,0.0,85,0.00,CLR,,0.00,WeatherDisplay:10.37,2013-02-26 08:20:00,
2013-02-26 03:25:00,23.7,19.9,30.21,NW,315,0.0,0.0,85,0.00,CLR,,0.00,WeatherDisplay:10.37,2013-02-26 08:25:00,
2013-02-26 03:30:00,23.7,19.9,30.22,NW,315,0.0,0.0,85,0.00,CLR,,0.00,WeatherDisplay:10.37,2013-02-26 08:30:00,
2013-02-26 03:35:00,23.5,19.7,30.22,NW,315,0.0,0.0,85,0.00,CLR,,0.00,WeatherDisplay:10.37,2013-02-26 08:35:00,
2013-02-26 03:40:00,23.4,19.5,30.22,NW,315,0.0,0.0,85,0.00,CLR,,0.00,WeatherDisplay:10.37,2013-02-26 08:40:00,
2013-02-26 03:45:00,23.4,19.5,30.22,NW,315,0.0,0.0,85,0.00,CLR,,0.00,WeatherDisplay:10.37,2013-02-26 08:45:00,
2013-02-26 03:50:00,23.4,19.5,30.22,NW,315,0.0,0.0,85,0.00,CLR,,0.00,WeatherDisplay:10.37,2013-02-26 08:50:00,
2013-02-26 03:55:00,23.4,19.5,30.22,NW,315,0.0,0.0,85,0.00,CLR,,0.00,WeatherDisplay:10.37,2013-02-26 08:55:00,
2013-02-26 04:00:00,23.4,19.5,30.23,NW,315,0.0,0.0,85,0.00,CLR,,0.00,WeatherDisplay:10.37,2013-02-26 09:00:00,
2013-02-26 04:05:00,23.4,19.5,30.23,NW,315,0.0,0.0,85,0.00,CLR,,0.00,WeatherDisplay:10.37,2013-02-26 09:05:00,
2013-02-26 04:10:00,23.4,19.5,30.23,NW,315,0.0,0.0,85,0.00,CLR,,0.00,WeatherDisplay:10.37,2013-02-26 09:10:00,
2013-02-26 04:15:00,23.4,19.5,30.23,NW,315,0.0,0.0,85,0.00,CLR,,0.00,WeatherDisplay:10.37,2013-02-26 09:15:00,
2013-02-26 04:20:00,23.4,19.5,30.24,NW,315,0.0,0.0,85,0.00,CLR,,0.00,WeatherDisplay:10.37,2013-02-26 09:20:00,
2013-02-26 04:25:00,23.4,19.5,30.24,NW,315,0.0,0.0,85,0.00,CLR,,0.00,WeatherDisplay:10.37,2013-02-26 09:25:00,
2013-02-26 04:30:00,23.4,19.5,30.24,NW,315,0.0,0.0,85,0.00,CLR,,0.00,WeatherDisplay:10.37,2013-02-26 09:30:00,
2013-02-26 04:35:00,23.4,19.5,30.24,NW,315,0.0,0.0,85,0.00,CLR,,0.00,WeatherDisplay:10.37,2013-02-26 09:35:00,
2013-02-26 04:40:00,23.2,19.3,30.24,NW,315,0.0,0.0,85,0.00,CLR,,0.00,WeatherDisplay:10.37,2013-02-26 09:40:00,
2013-02-26 04:45:00,23.2,19.3,30.24,NW,315,0.0,0.0,85,0.00,CLR,,0.00,WeatherDisplay:10.37,2013-02-26 09:45:00,
2013-02-26 04:50:00,23.2,19.3,30.24,NW,315,0.0,0.0,85,0.00,CLR,,0.00,WeatherDisplay:10.37,2013-02-26 09:50:00,
2013-02-26 04:55:00,23.4,19.5,30.23,NW,315,0.0,0.0,85,0.00,CLR,,0.00,WeatherDisplay:10.37,2013-02-26 09:55:00,
2013-02-26 05:00:00,23.2,19.3,30.24,NW,315,0.0,0.0,85,0.00,CLR,,0.00,WeatherDisplay:10.37,2013-02-26 10:00:00,
2013-02-26 05:05:00,23.2,19.3,30.23,NW,315,0.0,0.0,85,0.00,CLR,,0.00,WeatherDisplay:10.37,2013-02-26 10:05:00,
2013-02-26 05:10:00,23.2,19.3,30.23,NW,315,0.0,0.0,85,0.00,CLR,,0.00,WeatherDisplay:10.37,2013-02-26 10:10:00,
2013-02-26 05:15:00,23.2,19.3,30.23,NW,315,0.0,0.0,85,0.00,CLR,,0.00,WeatherDisplay:10.37,2013-02-26 10:15:00,
2013-02-26 05:20:00,23.2,19.3,30.23,NW,315,0.0,0.0,85,0.00,CLR,,0.00,WeatherDisplay:10.37,2013-02-26 10:20:00,
2013-02-26 05:25:00,23.0,19.2,30.22,NW,315,0.0,0.0,85,0.00,CLR,,0.00,WeatherDisplay:10.37,2013-02-26 10:25:00,
2013-02-26 05:30:00,23.0,19.2,30.23,NW,315,0.0,0.0,85,0.00,CLR,,0.00,WeatherDisplay:10.37,2013-02-26 10:30:00,
2013-02-26 05:35:00,23.0,19.2,30.23,NW,315,0.0,0.0,85,0.00,CLR,,0.00,WeatherDisplay:10.37,2013-02-26 10:35:00,
2013-02-26 05:40:00,23.0,19.2,30.22,NW,315,0.0,0.0,85,0.00,CLR,,0.00,WeatherDisplay:10.37,2013-02-26 10:40:00,
2013-02-26 05:45:00,23.0,19.2,30.22,NW,315,0.0,0.0,85,0.00,CLR,,0.00,WeatherDisplay:10.37,2013-02-26 10:45:00,
2013-02-26 05:50:00,22.8,19.0,30.23,NW,315,0.0,0.0,85,0.00,CLR,,0.00,WeatherDisplay:10.37,2013-02-26 10:50:00,
2013-02-26 05:55:00,22.8,19.0,30.23,NW,315,0.0,0.0,85,0.00,CLR,,0.00,WeatherDisplay:10.37,2013-02-26 10:55:00,
2013-02-26 06:00:00,22.8,19.0,30.24,NW,315,0.0,0.0,85,0.00,CLR,,0.00,WeatherDisplay:10.37,2013-02-26 11:00:00,
2013-02-26 06:05:00,22.8,19.0,30.24,NW,315,0.0,0.0,85,0.00,CLR,,0.00,WeatherDisplay:10.37,2013-02-26 11:05:00,
2013-02-26 06:10:00,22.6,18.8,30.24,NW,315,0.0,0.0,85,0.00,CLR,,0.00,WeatherDisplay:10.37,2013-02-26 11:10:00,
2013-02-26 06:15:00,22.6,18.8,30.24,NW,315,0.0,0.0,85,0.00,CLR,,0.00,WeatherDisplay:10.37,2013-02-26 11:15:00,
2013-02-26 06:20:00,22.6,18.8,30.24,NW,315,0.0,0.0,85,0.00,CLR,,0.00,WeatherDisplay:10.37,2013-02-26 11:20:00,
2013-02-26 06:25:00,22.6,18.8,30.24,NW,315,0.0,0.0,85,0.00,CLR,,0.00,WeatherDisplay:10.37,2013-02-26 11:25:00,
2013-02-26 06:30:00,22.6,18.8,30.25,NW,315,0.0,0.0,85,0.00,CLR,,0.00,WeatherDisplay:10.37,2013-02-26 11:30:00,
2013-02-26 06:35:00,22.6,18.8,30.25,NW,315,0.0,0.0,85,0.00,CLR,,0.00,WeatherDisplay:10.37,2013-02-26 11:35:00,
2013-02-26 06:40:00,22.6,18.8,30.25,NW,315,0.0,0.0,85,0.00,CLR,,0.00,WeatherDisplay:10.37,2013-02-26 11:40:00,
2013-02-26 06:45:00,22.8,19.0,30.25,NW,315,0.0,0.0,85,0.00,CLR,,0.00,WeatherDisplay:10.37,2013-02-26 11:45:00,
2013-02-26 06:50:00,23.0,19.4,30.25,NW,315,0.0,0.0,86,0.00,CLR,,0.00,WeatherDisplay:10.37,2013-02-26 11:50:00,
2013-02-26 06:55:00,23.2,19.6,30.25,NW,315,0.0,0.0,86,0.00,CLR,,0.00,WeatherDisplay:10.37,2013-02-26 11:55:00,
2013-02-26 07:00:00,23.4,19.8,30.25,NW,315,0.0,0.0,86,0.00,CLR,,0.00,WeatherDisplay:10.37,2013-02-26 12:00:00,
2013-02-26 07:05:00,23.9,20.3,30.25,NW,315,0.0,0.0,86,0.00,CLR,,0.00,WeatherDisplay:10.37,2013-02-26 12:05:00,
2013-02-26 07:10:00,24.1,20.5,30.25,NW,315,0.0,0.0,86,0.00,CLR,,0.00,WeatherDisplay:10.37,2013-02-26 12:10:00,
2013-02-26 07:15:00,24.4,20.9,30.25,NW,315,0.0,0.0,86,0.00,CLR,,0.00,WeatherDisplay:10.37,2013-02-26 12:15:00,
2013-02-26 07:20:00,24.8,21.2,30.26,NW,315,0.0,0.0,86,0.00,CLR,,0.00,WeatherDisplay:10.37,2013-02-26 12:20:00,
2013-02-26 07:25:00,25.2,21.6,30.26,NW,315,0.0,0.0,86,0.00,CLR,,0.00,WeatherDisplay:10.37,2013-02-26 12:25:00,
2013-02-26 07:30:00,25.7,22.1,30.26,NW,315,0.0,0.0,86,0.00,CLR,,0.00,WeatherDisplay:10.37,2013-02-26 12:30:00,
2013-02-26 07:35:00,26.1,22.4,30.26,NW,315,0.0,0.0,86,0.00,CLR,,0.00,WeatherDisplay:10.37,2013-02-26 12:35:00,
2013-02-26 07:40:00,26.6,23.0,30.25,NW,315,0.0,0.0,86,0.00,CLR,,0.00,WeatherDisplay:10.37,2013-02-26 12:40:00,
2013-02-26 07:45:00,27.3,23.7,30.26,NW,315,0.0,0.0,86,0.00,CLR,,0.00,WeatherDisplay:10.37,2013-02-26 12:45:00,
2013-02-26 07:50:00,27.9,24.2,30.26,NW,315,0.0,0.0,86,0.00,CLR,,0.00,WeatherDisplay:10.37,2013-02-26 12:50:00,
2013-02-26 07:55:00,28.4,24.7,30.26,NW,315,0.0,0.0,86,0.00,CLR,,0.00,WeatherDisplay:10.37,2013-02-26 12:55:00,
2013-02-26 08:00:00,29.1,25.5,30.26,NW,315,0.0,0.0,86,0.00,CLR,,0.00,WeatherDisplay:10.37,2013-02-26 13:00:00,
2013-02-26 08:05:00,29.8,26.2,30.26,NW,315,0.0,0.0,86,0.00,CLR,,0.00,WeatherDisplay:10.37,2013-02-26 13:05:00,
2013-02-26 08:10:00,30.4,27.0,30.26,NW,315,0.0,0.0,87,0.00,CLR,,0.00,WeatherDisplay:10.37,2013-02-26 13:10:00,
2013-02-26 08:15:00,31.1,27.7,30.26,NW,315,0.0,0.0,87,0.00,CLR,,0.00,WeatherDisplay:10.37,2013-02-26 13:15:00,
2013-02-26 08:20:00,31.8,28.4,30.26,NNE,22,0.2,0.5,87,0.00,CLR,,0.00,WeatherDisplay:10.37,2013-02-26 13:20:00,
2013-02-26 08:25:00,32.7,29.3,30.26,ENE,68,0.5,0.5,87,0.00,CLR,,0.00,WeatherDisplay:10.37,2013-02-26 13:25:00,
2013-02-26 08:30:00,33.4,29.7,30.26,ENE,68,0.5,0.5,86,0.00,CLR,,0.00,WeatherDisplay:10.37,2013-02-26 13:30:00,
2013-02-26 08:35:00,34.5,30.5,30.26,ENE,68,2.0,2.3,85,0.00,CLR,,0.00,WeatherDisplay:10.37,2013-02-26 13:35:00,
2013-02-26 08:40:00,35.4,31.1,30.27,NE,45,0.5,0.5,84,0.01,RA,,0.01,WeatherDisplay:10.37,2013-02-26 13:40:00,
2013-02-26 08:45:00,36.3,31.9,30.26,East,90,0.5,1.1,84,0.01,RA,,0.01,WeatherDisplay:10.37,2013-02-26 13:45:00,
2013-02-26 08:50:00,37.0,31.8,30.27,ESE,112,2.0,2.3,81,0.01,CLR,,0.01,WeatherDisplay:10.37,2013-02-26 13:50:00,
2013-02-26 08:55:00,37.6,32.0,30.27,ESE,112,1.1,1.1,80,0.01,CLR,,0.01,WeatherDisplay:10.37,2013-02-26 13:55:00,
2013-02-26 09:00:00,38.1,31.9,30.27,NE,45,2.2,2.3,78,0.01,CLR,,0.01,WeatherDisplay:10.37,2013-02-26 14:00:00,
2013-02-26 09:05:00,38.5,30.6,30.27,East,90,1.8,2.3,73,0.01,CLR,,0.01,WeatherDisplay:10.37,2013-02-26 14:05:00,
2013-02-26 09:10:00,39.0,30.4,30.27,ENE,68,4.9,4.9,71,0.01,CLR,,0.01,WeatherDisplay:10.37,2013-02-26 14:10:00,
2013-02-26 09:15:00,39.2,29.9,30.28,NE,45,2.9,4.6,69,0.01,CLR,,0.01,WeatherDisplay:10.37,2013-02-26 14:15:00,
2013-02-26 09:20:00,39.7,30.4,30.27,East,90,0.5,2.3,69,0.01,CLR,,0.01,WeatherDisplay:10.37,2013-02-26 14:20:00,
2013-02-26 09:25:00,40.3,29.8,30.27,ENE,68,3.3,5.8,66,0.01,CLR,,0.01,WeatherDisplay:10.37,2013-02-26 14:25:00,
2013-02-26 09:30:00,40.6,29.8,30.28,ENE,68,3.8,3.8,65,0.01,CLR,,0.01,WeatherDisplay:10.37,2013-02-26 14:30:00,
2013-02-26 09:35:00,40.6,29.4,30.28,NE,45,3.3,5.8,64,0.01,CLR,,0.01,WeatherDisplay:10.37,2013-02-26 14:35:00,
2013-02-26 09:40:00,40.8,29.2,30.27,NE,45,2.4,2.4,63,0.00,CLR,,0.01,WeatherDisplay:10.37,2013-02-26 14:40:00,
2013-02-26 09:45:00,41.0,29.0,30.27,ENE,68,4.0,6.9,62,0.00,CLR,,0.01,WeatherDisplay:10.37,2013-02-26 14:45:00,
2013-02-26 09:50:00,41.4,28.9,30.27,ENE,68,4.0,5.8,61,0.00,CLR,,0.01,WeatherDisplay:10.37,2013-02-26 14:50:00,
2013-02-26 09:55:00,41.5,29.5,30.27,NE,45,1.1,3.5,62,0.00,CLR,,0.01,WeatherDisplay:10.37,2013-02-26 14:55:00,
2013-02-26 10:00:00,42.1,29.6,30.27,North,0,4.7,6.9,61,0.00,CLR,,0.01,WeatherDisplay:10.37,2013-02-26 15:00:00,
2013-02-26 10:05:00,42.3,28.9,30.26,ENE,68,2.9,4.6,59,0.00,CLR,,0.01,WeatherDisplay:10.37,2013-02-26 15:05:00,
2013-02-26 10:10:00,42.4,29.1,30.26,North,0,2.0,3.5,59,0.00,CLR,,0.01,WeatherDisplay:10.37,2013-02-26 15:10:00,
2013-02-26 10:15:00,42.4,28.7,30.27,ENE,68,3.6,3.6,58,0.00,CLR,,0.01,WeatherDisplay:10.37,2013-02-26 15:15:00,
2013-02-26 10:20:00,42.4,29.1,30.27,North,0,0.7,2.3,59,0.00,CLR,,0.01,WeatherDisplay:10.37,2013-02-26 15:20:00,
2013-02-26 10:25:00,42.4,29.5,30.27,SE,135,1.1,4.6,60,0.00,CLR,,0.01,WeatherDisplay:10.37,2013-02-26 15:25:00,
2013-02-26 10:30:00,42.6,29.7,30.27,ESE,112,4.0,4.6,60,0.00,CLR,,0.01,WeatherDisplay:10.37,2013-02-26 15:30:00,
2013-02-26 10:35:00,42.8,30.3,30.27,SSW,202,4.0,4.0,61,0.00,CLR,,0.01,WeatherDisplay:10.37,2013-02-26 15:35:00,
2013-02-26 10:40:00,43.2,29.4,30.27,ESE,112,2.2,3.5,58,0.00,CLR,,0.01,WeatherDisplay:10.37,2013-02-26 15:40:00,
2013-02-26 10:45:00,43.3,30.0,30.27,SE,135,4.0,4.7,59,0.00,CLR,,0.01,WeatherDisplay:10.37,2013-02-26 15:45:00,
2013-02-26 10:50:00,43.3,29.5,30.27,South,180,0.5,1.1,58,0.00,CLR,,0.01,WeatherDisplay:10.37,2013-02-26 15:50:00,
2013-02-26 10:55:00,43.5,29.3,30.27,ESE,112,2.4,6.9,57,0.00,CLR,,0.01,WeatherDisplay:10.37,2013-02-26 15:55:00,
2013-02-26 11:00:00,43.7,29.5,30.27,ENE,68,1.8,3.5,57,0.00,CLR,,0.01,WeatherDisplay:10.37,2013-02-26 16:00:00,
2013-02-26 11:05:00,43.5,28.4,30.27,East,90,7.8,7.8,55,0.00,CLR,,0.01,WeatherDisplay:10.37,2013-02-26 16:05:00,
2013-02-26 11:10:00,43.3,28.2,30.27,SSE,158,6.4,6.9,55,0.00,CLR,,0.01,WeatherDisplay:10.37,2013-02-26 16:10:00,
2013-02-26 11:15:00,43.3,29.1,30.26,SSE,158,2.4,4.6,57,0.00,CLR,,0.01,WeatherDisplay:10.37,2013-02-26 16:15:00,
2013-02-26 11:20:00,43.9,29.6,30.26,East,90,1.8,4.6,57,0.00,CLR,,0.01,WeatherDisplay:10.37,2013-02-26 16:20:00,
2013-02-26 11:25:00,44.2,29.5,30.26,South,180,1.1,2.3,56,0.00,CLR,,0.01,WeatherDisplay:10.37,2013-02-26 16:25:00,
2013-02-26 11:30:00,44.2,29.5,30.25,NNW,338,2.2,5.8,56,0.00,CLR,,0.01,WeatherDisplay:10.37,2013-02-26 16:30:00,
2013-02-26 11:35:00,44.2,29.1,30.25,East,90,3.6,3.6,55,0.00,CLR,,0.01,WeatherDisplay:10.37,2013-02-26 16:35:00,
2013-02-26 11:40:00,44.2,28.6,30.25,SE,135,2.6,4.6,54,0.00,CLR,,0.01,WeatherDisplay:10.37,2013-02-26 16:40:00,
2013-02-26 11:45:00,43.9,27.8,30.25,East,90,4.5,6.9,53,0.00,CLR,,0.01,WeatherDisplay:10.37,2013-02-26 16:45:00,
2013-02-26 11:50:00,43.7,28.1,30.25,SW,225,1.6,8.1,54,0.00,CLR,,0.01,WeatherDisplay:10.37,2013-02-26 16:50:00,
2013-02-26 11:55:00,43.9,28.7,30.25,South,180,3.3,3.3,55,0.00,CLR,,0.01,WeatherDisplay:10.37,2013-02-26 16:55:00,
2013-02-26 12:00:00,44.2,28.6,30.25,ESE,112,1.8,3.5,54,0.00,CLR,,0.01,WeatherDisplay:10.37,2013-02-26 17:00:00,
2013-02-26 12:05:00,44.2,28.2,30.25,SE,135,4.0,5.8,53,0.00,CLR,,0.01,WeatherDisplay:10.37,2013-02-26 17:05:00,
2013-02-26 12:10:00,44.8,29.1,30.25,SE,135,2.4,2.4,54,0.00,CLR,,0.01,WeatherDisplay:10.37,2013-02-26 17:10:00,
2013-02-26 12:15:00,44.6,28.0,30.26,SSE,158,5.6,6.9,52,0.00,CLR,,0.01,WeatherDisplay:10.37,2013-02-26 17:15:00,
2013-02-26 12:20:00,44.4,28.3,30.26,East,90,2.4,4.6,53,0.00,CLR,,0.01,WeatherDisplay:10.37,2013-02-26 17:20:00,
2013-02-26 12:25:00,44.6,28.5,30.26,SSW,202,1.6,2.3,53,0.00,CLR,,0.01,WeatherDisplay:10.37,2013-02-26 17:25:00,
2013-02-26 12:30:00,44.8,29.1,30.26,SSE,158,4.3,6.9,54,0.00,CLR,,0.01,WeatherDisplay:10.37,2013-02-26 17:30:00,
2013-02-26 12:35:00,45.0,28.8,30.26,SSW,202,1.8,3.5,53,0.00,CLR,,0.01,WeatherDisplay:10.37,2013-02-26 17:35:00,
2013-02-26 12:40:00,45.0,29.8,30.26,SSW,202,3.8,4.6,55,0.00,CLR,,0.01,WeatherDisplay:10.37,2013-02-26 17:40:00,
2013-02-26 12:45:00,44.8,29.1,30.26,SW,225,2.4,4.6,54,0.00,CLR,,0.01,WeatherDisplay:10.37,2013-02-26 17:45:00,
2013-02-26 12:50:00,44.6,28.5,30.26,South,180,2.9,5.8,53,0.00,CLR,,0.01,WeatherDisplay:10.37,2013-02-26 17:50:00,
2013-02-26 12:55:00,44.4,28.3,30.26,SSE,158,5.4,5.8,53,0.00,CLR,,0.01,WeatherDisplay:10.37,2013-02-26 17:55:00,
2013-02-26 13:00:00,44.2,28.6,30.26,SW,225,6.2,6.2,54,0.00,CLR,,0.01,WeatherDisplay:10.37,2013-02-26 18:00:00,
2013-02-26 13:05:00,44.1,28.0,30.26,SSE,158,4.5,4.9,53,0.00,CLR,,0.01,WeatherDisplay:10.37,2013-02-26 18:05:00,
2013-02-26 13:10:00,43.9,28.3,30.26,South,180,4.0,4.6,54,0.00,CLR,,0.01,WeatherDisplay:10.37,2013-02-26 18:10:00,
2013-02-26 13:15:00,44.2,28.2,30.25,South,180,5.4,5.8,53,0.00,CLR,,0.01,WeatherDisplay:10.37,2013-02-26 18:15:00,
2013-02-26 13:20:00,44.4,27.9,30.25,NE,45,3.6,5.8,52,0.00,CLR,,0.01,WeatherDisplay:10.37,2013-02-26 18:20:00,
2013-02-26 13:25:00,43.9,27.8,30.25,SSW,202,2.9,5.8,53,0.00,CLR,,0.01,WeatherDisplay:10.37,2013-02-26 18:25:00,
2013-02-26 13:30:00,43.7,27.7,30.25,SSW,202,1.8,3.5,53,0.00,CLR,,0.01,WeatherDisplay:10.37,2013-02-26 18:30:00,
2013-02-26 13:35:00,43.7,28.1,30.24,South,180,4.0,6.9,54,0.00,CLR,,0.01,WeatherDisplay:10.37,2013-02-26 18:35:00,
2013-02-26 13:40:00,43.5,27.5,30.25,South,180,4.7,6.9,53,0.00,CLR,,0.01,WeatherDisplay:10.37,2013-02-26 18:40:00,
2013-02-26 13:45:00,43.3,27.3,30.25,South,180,1.4,8.1,53,0.00,CLR,,0.01,WeatherDisplay:10.37,2013-02-26 18:45:00,
2013-02-26 13:50:00,43.2,27.2,30.25,ESE,112,3.8,4.6,53,0.00,CLR,,0.01,WeatherDisplay:10.37,2013-02-26 18:50:00,
2013-02-26 13:55:00,43.0,27.0,30.25,SW,225,1.1,3.5,53,0.00,CLR,,0.01,WeatherDisplay:10.37,2013-02-26 18:55:00,
2013-02-26 14:00:00,42.8,26.8,30.25,SSE,158,0.9,2.3,53,0.00,CLR,,0.01,WeatherDisplay:10.37,2013-02-26 19:00:00,
2013-02-26 14:05:00,42.8,27.3,30.24,SSW,202,2.4,3.5,54,0.00,CLR,,0.01,WeatherDisplay:10.37,2013-02-26 19:05:00,
2013-02-26 14:10:00,43.0,27.5,30.24,South,180,3.3,4.6,54,0.00,CLR,,0.01,WeatherDisplay:10.37,2013-02-26 19:10:00,
2013-02-26 14:15:00,43.0,27.9,30.24,South,180,1.6,5.8,55,0.00,CLR,,0.01,WeatherDisplay:10.37,2013-02-26 19:15:00,
2013-02-26 14:20:00,42.8,28.6,30.23,SSE,158,2.4,4.6,57,0.00,CLR,,0.01,WeatherDisplay:10.37,2013-02-26 19:20:00,
2013-02-26 14:25:00,42.8,27.7,30.24,NE,45,1.8,2.6,55,0.00,CLR,,0.01,WeatherDisplay:10.37,2013-02-26 19:25:00,
2013-02-26 14:30:00,42.8,28.6,30.24,SSE,158,1.8,4.6,57,0.00,CLR,,0.01,WeatherDisplay:10.37,2013-02-26 19:30:00,
2013-02-26 14:35:00,42.8,29.0,30.24,SE,135,1.4,4.6,58,0.00,CLR,,0.01,WeatherDisplay:10.37,2013-02-26 19:35:00,
2013-02-26 14:40:00,42.8,28.6,30.24,East,90,1.1,3.5,57,0.00,CLR,,0.01,WeatherDisplay:10.37,2013-02-26 19:40:00,
2013-02-26 14:45:00,42.4,27.8,30.23,South,180,2.2,4.6,56,0.00,CLR,,0.01,WeatherDisplay:10.37,2013-02-26 19:45:00,
2013-02-26 14:50:00,42.1,28.4,30.23,SE,135,1.1,4.6,58,0.00,CLR,,0.01,WeatherDisplay:10.37,2013-02-26 19:50:00,
2013-02-26 14:55:00,42.3,28.9,30.23,South,180,2.0,4.6,59,0.00,CLR,,0.01,WeatherDisplay:10.37,2013-02-26 19:55:00,
2013-02-26 15:00:00,42.3,28.9,30.22,East,90,3.3,3.5,59,0.00,CLR,,0.01,WeatherDisplay:10.37,2013-02-26 20:00:00,
2013-02-26 15:05:00,42.3,28.9,30.22,ENE,68,2.4,3.1,59,0.00,CLR,,0.01,WeatherDisplay:10.37,2013-02-26 20:05:00,
2013-02-26 15:10:00,42.1,27.9,30.22,NNE,22,3.3,3.3,57,0.00,CLR,,0.01,WeatherDisplay:10.37,2013-02-26 20:10:00,
2013-02-26 15:15:00,41.7,28.0,30.22,SSE,158,1.1,3.5,58,0.00,CLR,,0.01,WeatherDisplay:10.37,2013-02-26 20:15:00,
2013-02-26 15:20:00,41.7,27.6,30.22,ESE,112,2.6,5.8,57,0.00,CLR,,0.01,WeatherDisplay:10.37,2013-02-26 20:20:00,
2013-02-26 15:25:00,41.4,28.1,30.22,East,90,3.8,4.6,59,0.00,CLR,,0.01,WeatherDisplay:10.37,2013-02-26 20:25:00,
2013-02-26 15:30:00,41.4,28.5,30.22,NE,45,3.8,4.6,60,0.00,CLR,,0.01,WeatherDisplay:10.37,2013-02-26 20:30:00,
2013-02-26 15:35:00,41.4,29.3,30.22,NE,45,2.2,2.3,62,0.00,CLR,,0.01,WeatherDisplay:10.37,2013-02-26 20:35:00,
2013-02-26 15:40:00,41.2,29.1,30.23,SE,135,3.6,4.6,62,0.00,CLR,,0.01,WeatherDisplay:10.37,2013-02-26 20:40:00,
2013-02-26 15:45:00,41.0,29.4,30.23,South,180,0.7,4.6,63,0.00,CLR,,0.01,WeatherDisplay:10.37,2013-02-26 20:45:00,
2013-02-26 15:50:00,40.8,29.2,30.23,WSW,248,1.6,3.5,63,0.00,CLR,,0.01,WeatherDisplay:10.37,2013-02-26 20:50:00,
2013-02-26 15:55:00,40.8,30.0,30.23,South,180,3.6,3.6,65,0.00,CLR,,0.01,WeatherDisplay:10.37,2013-02-26 20:55:00,
2013-02-26 16:00:00,40.8,30.0,30.23,NE,45,2.4,5.4,65,0.00,CLR,,0.01,WeatherDisplay:10.37,2013-02-26 21:00:00,
2013-02-26 16:05:00,40.6,30.2,30.23,ESE,112,0.9,3.5,66,0.00,CLR,,0.01,WeatherDisplay:10.37,2013-02-26 21:05:00,
2013-02-26 16:10:00,40.5,30.0,30.23,South,180,1.4,4.6,66,0.00,CLR,,0.01,WeatherDisplay:10.37,2013-02-26 21:10:00,
2013-02-26 16:15:00,40.3,29.8,30.23,SE,135,0.9,2.3,66,0.00,CLR,,0.01,WeatherDisplay:10.37,2013-02-26 21:15:00,
2013-02-26 16:20:00,40.3,30.2,30.22,SSE,158,2.9,2.9,67,0.00,CLR,,0.01,WeatherDisplay:10.37,2013-02-26 21:20:00,
2013-02-26 16:25:00,39.9,29.8,30.22,ESE,112,1.1,2.3,67,0.00,CLR,,0.01,WeatherDisplay:10.37,2013-02-26 21:25:00,
2013-02-26 16:30:00,39.7,29.7,30.21,South,180,1.1,2.3,67,0.00,CLR,,0.01,WeatherDisplay:10.37,2013-02-26 21:30:00,
2013-02-26 16:35:00,39.6,29.5,30.21,East,90,1.8,4.6,67,0.00,CLR,,0.01,WeatherDisplay:10.37,2013-02-26 21:35:00,
2013-02-26 16:40:00,39.4,29.3,30.22,ENE,68,2.4,2.9,67,0.00,CLR,,0.01,WeatherDisplay:10.37,2013-02-26 21:40:00,
2013-02-26 16:45:00,39.4,29.7,30.21,SSW,202,0.5,2.3,68,0.00,CLR,,0.01,WeatherDisplay:10.37,2013-02-26 21:45:00,
2013-02-26 16:50:00,39.2,29.5,30.21,ENE,68,1.6,2.3,68,0.00,CLR,,0.01,WeatherDisplay:10.37,2013-02-26 21:50:00,
2013-02-26 16:55:00,38.8,29.2,30.21,ENE,68,0.9,1.1,68,0.00,CLR,,0.01,WeatherDisplay:10.37,2013-02-26 21:55:00,
2013-02-26 17:00:00,38.7,29.0,30.21,East,90,0.0,0.0,68,0.00,CLR,,0.01,WeatherDisplay:10.37,2013-02-26 22:00:00,
2013-02-26 17:05:00,38.5,28.8,30.21,East,90,0.5,0.0,68,0.00,CLR,,0.01,WeatherDisplay:10.37,2013-02-26 22:05:00,
2013-02-26 17:10:00,38.3,29.0,30.21,ENE,68,5.6,5.6,69,0.00,CLR,,0.01,WeatherDisplay:10.37,2013-02-26 22:10:00,
2013-02-26 17:15:00,38.1,29.2,30.21,East,90,2.2,3.5,70,0.00,CLR,,0.01,WeatherDisplay:10.37,2013-02-26 22:15:00,
2013-02-26 17:20:00,37.9,28.7,30.21,ENE,68,0.2,1.1,69,0.00,CLR,,0.01,WeatherDisplay:10.37,2013-02-26 22:20:00,
2013-02-26 17:25:00,37.9,28.7,30.22,SE,135,0.5,1.1,69,0.00,CLR,,0.01,WeatherDisplay:10.37,2013-02-26 22:25:00,
2013-02-26 17:30:00,37.8,28.5,30.22,South,180,0.7,1.1,69,0.00,CLR,,0.01,WeatherDisplay:10.37,2013-02-26 22:30:00,
2013-02-26 17:35:00,37.6,28.7,30.21,NE,45,0.7,2.3,70,0.00,CLR,,0.01,WeatherDisplay:10.37,2013-02-26 22:35:00,
2013-02-26 17:40:00,37.6,28.7,30.21,East,90,0.5,1.1,70,0.00,CLR,,0.01,WeatherDisplay:10.37,2013-02-26 22:40:00,
2013-02-26 17:45:00,37.4,28.5,30.21,ESE,112,0.9,1.4,70,0.00,CLR,,0.01,WeatherDisplay:10.37,2013-02-26 22:45:00,
2013-02-26 17:50:00,37.2,28.7,30.21,East,90,0.5,1.1,71,0.00,CLR,,0.01,WeatherDisplay:10.37,2013-02-26 22:50:00,
2013-02-26 17:55:00,37.0,28.5,30.21,ENE,68,0.0,0.2,71,0.00,CLR,,0.01,WeatherDisplay:10.37,2013-02-26 22:55:00,
2013-02-26 18:00:00,36.9,28.3,30.21,ENE,68,0.0,0.0,71,0.00,CLR,,0.01,WeatherDisplay:10.37,2013-02-26 23:00:00,
2013-02-26 18:05:00,36.7,28.2,30.21,ENE,68,0.0,0.0,71,0.00,CLR,,0.01,WeatherDisplay:10.37,2013-02-26 23:05:00,
2013-02-26 18:10:00,36.5,28.0,30.22,ENE,68,0.0,0.0,71,0.00,CLR,,0.01,WeatherDisplay:10.37,2013-02-26 23:10:00,
2013-02-26 18:15:00,36.3,27.8,30.21,ENE,68,0.0,0.0,71,0.00,CLR,,0.01,WeatherDisplay:10.37,2013-02-26 23:15:00,
2013-02-26 18:20:00,36.1,27.6,30.21,ENE,68,0.7,1.1,71,0.00,CLR,,0.01,WeatherDisplay:10.37,2013-02-26 23:20:00,
2013-02-26 18:25:00,35.8,27.6,30.21,NE,45,0.9,1.1,72,0.00,CLR,,0.01,WeatherDisplay:10.37,2013-02-26 23:25:00,
2013-02-26 18:30:00,35.8,28.0,30.20,ENE,68,1.4,2.3,73,0.00,CLR,,0.01,WeatherDisplay:10.37,2013-02-26 23:30:00,
2013-02-26 18:35:00,35.6,27.8,30.20,ENE,68,0.9,1.1,73,0.00,CLR,,0.01,WeatherDisplay:10.37,2013-02-26 23:35:00,
2013-02-26 18:40:00,35.6,27.8,30.21,ENE,68,0.2,1.1,73,0.00,CLR,,0.01,WeatherDisplay:10.37,2013-02-26 23:40:00,
2013-02-26 18:45:00,35.6,27.8,30.21,ENE,68,0.5,0.5,73,0.00,CLR,,0.01,WeatherDisplay:10.37,2013-02-26 23:45:00,
2013-02-26 18:50:00,35.6,27.8,30.21,ENE,68,0.0,0.0,73,0.00,CLR,,0.01,WeatherDisplay:10.37,2013-02-26 23:50:00,
2013-02-26 18:55:00,35.6,27.8,30.20,ENE,68,0.0,0.0,73,0.00,CLR,,0.01,WeatherDisplay:10.37,2013-02-26 23:55:00,
2013-02-26 19:00:00,35.6,27.8,30.19,NE,45,0.2,2.3,73,0.00,CLR,,0.01,WeatherDisplay:10.37,2013-02-27 00:00:00,
2013-02-26 19:05:00,35.6,27.8,30.19,NNE,22,0.5,2.3,73,0.00,CLR,,0.01,WeatherDisplay:10.37,2013-02-27 00:05:00,
2013-02-26 19:10:00,35.4,27.6,30.18,NE,45,0.7,1.1,73,0.00,CLR,,0.01,WeatherDisplay:10.37,2013-02-27 00:10:00,
2013-02-26 19:15:00,35.2,27.8,30.18,East,90,1.1,2.3,74,0.00,CLR,,0.01,WeatherDisplay:10.37,2013-02-27 00:15:00,
2013-02-26 19:20:00,35.4,28.0,30.18,North,0,0.0,1.1,74,0.00,CLR,,0.01,WeatherDisplay:10.37,2013-02-27 00:20:00,
2013-02-26 19:25:00,35.2,27.8,30.18,NNE,22,0.2,1.1,74,0.00,CLR,,0.01,WeatherDisplay:10.37,2013-02-27 00:25:00,
2013-02-26 19:30:00,35.4,28.3,30.18,ENE,68,0.7,2.3,75,0.00,CLR,,0.01,WeatherDisplay:10.37,2013-02-27 00:30:00,
2013-02-26 19:35:00,35.4,28.3,30.19,ENE,68,1.6,1.6,75,0.00,CLR,,0.01,WeatherDisplay:10.37,2013-02-27 00:35:00,
2013-02-26 19:40:00,35.2,28.1,30.19,ENE,68,0.2,0.2,75,0.00,CLR,,0.01,WeatherDisplay:10.37,2013-02-27 00:40:00,
2013-02-26 19:45:00,35.2,28.1,30.18,ENE,68,0.2,1.1,75,0.00,CLR,,0.01,WeatherDisplay:10.37,2013-02-27 00:45:00,
2013-02-26 19:50:00,35.2,28.1,30.18,NE,45,0.5,2.3,75,0.00,CLR,,0.01,WeatherDisplay:10.37,2013-02-27 00:50:00,
2013-02-26 19:55:00,35.2,28.1,30.18,ENE,68,0.7,2.3,75,0.00,CLR,,0.01,WeatherDisplay:10.37,2013-02-27 00:55:00,
2013-02-26 20:00:00,35.2,28.1,30.18,NE,45,0.7,1.1,75,0.00,CLR,,0.01,WeatherDisplay:10.37,2013-02-27 01:00:00,
2013-02-26 20:05:00,35.2,28.4,30.18,NE,45,0.5,1.1,76,0.00,CLR,,0.01,WeatherDisplay:10.37,2013-02-27 01:05:00,
2013-02-26 20:10:00,35.2,28.4,30.18,ENE,68,0.5,0.5,76,0.00,CLR,,0.01,WeatherDisplay:10.37,2013-02-27 01:10:00,
2013-02-26 20:15:00,35.4,28.6,30.18,NE,45,1.1,2.3,76,0.00,CLR,,0.01,WeatherDisplay:10.37,2013-02-27 01:15:00,
2013-02-26 20:20:00,35.4,28.6,30.18,ENE,68,0.7,1.1,76,0.00,CLR,,0.01,WeatherDisplay:10.37,2013-02-27 01:20:00,
2013-02-26 20:25:00,35.4,28.6,30.18,ENE,68,0.0,0.0,76,0.00,CLR,,0.01,WeatherDisplay:10.37,2013-02-27 01:25:00,
2013-02-26 20:30:00,35.6,28.8,30.18,NE,45,0.5,1.1,76,0.00,CLR,,0.01,WeatherDisplay:10.37,2013-02-27 01:30:00,
2013-02-26 20:35:00,35.6,28.8,30.18,ENE,68,1.1,1.1,76,0.00,CLR,,0.01,WeatherDisplay:10.37,2013-02-27 01:35:00,
2013-02-26 20:40:00,35.6,28.8,30.18,ENE,68,0.5,1.1,76,0.00,CLR,,0.01,WeatherDisplay:10.37,2013-02-27 01:40:00,
2013-02-26 20:45:00,35.6,28.8,30.18,ENE,68,0.2,1.1,76,0.00,CLR,,0.01,WeatherDisplay:10.37,2013-02-27 01:45:00,
2013-02-26 20:50:00,35.6,28.8,30.18,NE,45,0.2,1.1,76,0.00,CLR,,0.01,WeatherDisplay:10.37,2013-02-27 01:50:00,
2013-02-26 20:55:00,35.4,28.6,30.18,ENE,68,0.0,0.0,76,0.00,CLR,,0.01,WeatherDisplay:10.37,2013-02-27 01:55:00,
2013-02-26 21:00:00,35.6,28.8,30.18,ENE,68,0.2,0.2,76,0.00,CLR,,0.01,WeatherDisplay:10.37,2013-02-27 02:00:00,
2013-02-26 21:05:00,35.6,28.8,30.17,NE,45,0.5,1.1,76,0.00,CLR,,0.01,WeatherDisplay:10.37,2013-02-27 02:05:00,
2013-02-26 21:10:00,35.4,28.9,30.16,NE,45,1.1,1.1,77,0.00,CLR,,0.01,WeatherDisplay:10.37,2013-02-27 02:10:00,
2013-02-26 21:16:00,35.6,29.1,30.16,ENE,68,0.5,1.1,77,0.00,CLR,,0.01,WeatherDisplay:10.37,2013-02-27 02:16:00,
2013-02-26 21:21:00,35.6,29.4,30.16,ENE,68,2.0,2.3,78,0.00,CLR,,0.01,WeatherDisplay:10.37,2013-02-27 02:21:00,
2013-02-26 21:26:00,35.8,29.6,30.15,NE,45,0.5,1.1,78,0.00,CLR,,0.01,WeatherDisplay:10.37,2013-02-27 02:26:00,
2013-02-26 21:31:00,36.0,29.8,30.15,ENE,68,1.4,2.3,78,0.00,CLR,,0.01,WeatherDisplay:10.37,2013-02-27 02:31:00,
2013-02-26 21:36:00,36.0,29.8,30.15,ENE,68,0.7,2.3,78,0.00,CLR,,0.01,WeatherDisplay:10.37,2013-02-27 02:36:00,
2013-02-26 21:41:00,36.3,30.7,30.15,ESE,112,1.8,2.3,80,0.00,CLR,,0.01,WeatherDisplay:10.37,2013-02-27 02:41:00,
2013-02-26 21:46:00,36.7,31.4,30.15,East,90,4.0,4.6,81,0.00,CLR,,0.01,WeatherDisplay:10.37,2013-02-27 02:46:00,
2013-02-26 21:51:00,37.2,32.2,30.14,ESE,112,1.4,2.3,82,0.00,CLR,,0.01,WeatherDisplay:10.37,2013-02-27 02:51:00,
2013-02-26 21:56:00,37.6,32.3,30.14,NE,45,2.9,3.5,81,0.00,CLR,,0.01,WeatherDisplay:10.37,2013-02-27 02:56:00,
2013-02-26 22:01:00,37.8,33.1,30.14,SE,135,1.4,3.5,83,0.00,CLR,,0.01,WeatherDisplay:10.37,2013-02-27 03:01:00,
2013-02-26 22:06:00,38.1,33.4,30.14,East,90,2.2,5.8,83,0.00,CLR,,0.01,WeatherDisplay:10.37,2013-02-27 03:06:00,
2013-02-26 22:11:00,38.3,33.3,30.14,ENE,68,0.7,2.3,82,0.00,CLR,,0.01,WeatherDisplay:10.37,2013-02-27 03:11:00,
2013-02-26 22:16:00,38.5,33.8,30.13,NE,45,2.4,5.8,83,0.00,CLR,,0.01,WeatherDisplay:10.37,2013-02-27 03:16:00,
2013-02-26 22:21:00,38.5,33.8,30.13,ENE,68,4.5,4.5,83,0.00,CLR,,0.01,WeatherDisplay:10.37,2013-02-27 03:21:00,
2013-02-26 22:26:00,38.5,33.8,30.12,East,90,2.4,3.5,83,0.00,CLR,,0.01,WeatherDisplay:10.37,2013-02-27 03:26:00,
2013-02-26 22:31:00,38.7,33.9,30.12,ENE,68,4.9,4.9,83,0.00,CLR,,0.01,WeatherDisplay:10.37,2013-02-27 03:31:00,
2013-02-26 22:36:00,38.8,34.1,30.11,NNW,338,1.1,2.3,83,0.00,CLR,,0.01,WeatherDisplay:10.37,2013-02-27 03:36:00,
2013-02-26 22:41:00,38.8,34.1,30.11,NE,45,2.4,5.8,83,0.00,CLR,,0.01,WeatherDisplay:10.37,2013-02-27 03:41:00,
2013-02-26 22:46:00,38.8,34.1,30.11,East,90,3.6,8.1,83,0.00,CLR,,0.01,WeatherDisplay:10.37,2013-02-27 03:46:00,
2013-02-26 22:51:00,38.8,34.1,30.11,NE,45,6.7,6.7,83,0.00,CLR,,0.01,WeatherDisplay:10.37,2013-02-27 03:51:00,
2013-02-26 22:56:00,38.8,34.1,30.11,ENE,68,1.6,4.7,83,0.00,CLR,,0.01,WeatherDisplay:10.37,2013-02-27 03:56:00,
2013-02-26 23:01:00,38.8,34.1,30.10,East,90,5.4,6.9,83,0.00,CLR,,0.01,WeatherDisplay:10.37,2013-02-27 04:01:00,
2013-02-26 23:06:00,39.0,34.3,30.09,ENE,68,3.3,6.9,83,0.00,CLR,,0.01,WeatherDisplay:10.37,2013-02-27 04:06:00,
2013-02-26 23:11:00,39.0,34.3,30.10,East,90,4.0,4.6,83,0.00,CLR,,0.01,WeatherDisplay:10.37,2013-02-27 04:11:00,
2013-02-26 23:16:00,39.0,34.0,30.09,NNE,22,1.4,4.6,82,0.00,CLR,,0.01,WeatherDisplay:10.37,2013-02-27 04:16:00,
2013-02-26 23:21:00,39.0,34.0,30.09,ESE,112,3.3,4.6,82,0.00,CLR,,0.01,WeatherDisplay:10.37,2013-02-27 04:21:00,
2013-02-26 23:26:00,39.0,34.0,30.08,NE,45,2.9,5.8,82,0.00,CLR,,0.01,WeatherDisplay:10.37,2013-02-27 04:26:00,
2013-02-26 23:31:00,39.2,34.2,30.08,SE,135,3.6,8.1,82,0.00,CLR,,0.01,WeatherDisplay:10.37,2013-02-27 04:31:00,
2013-02-26 23:36:00,39.2,33.9,30.08,ENE,68,2.4,4.6,81,0.00,CLR,,0.01,WeatherDisplay:10.37,2013-02-27 04:36:00,
2013-02-26 23:41:00,39.2,33.9,30.08,ENE,68,2.6,6.9,81,0.00,CLR,,0.01,WeatherDisplay:10.37,2013-02-27 04:41:00,
2013-02-26 23:46:00,39.2,33.5,30.08,ENE,68,4.3,5.8,80,0.00,CLR,,0.01,WeatherDisplay:10.37,2013-02-27 04:46:00,
2013-02-26 23:51:00,39.4,33.7,30.08,NNE,22,4.5,4.6,80,0.00,CLR,,0.01,WeatherDisplay:10.37,2013-02-27 04:51:00,
2013-02-26 23:56:00,39.4,33.7,30.07,East,90,7.1,7.1,80,0.00,CLR,,0.01,WeatherDisplay:10.37,2013-02-27 04:56:00,